Location: Be?chatów
(51.3665°N, 19.3745°E)
Time: 08:11:42
(UTC+00:00)

CENTAUR R/B - Pass Details

Date: 19 May 2025
Orbit: 645 x 1537 km, 63.4° (Epoch: 16 June)

Event Time Altitude Azimuth Distance (km) Brightness Sun altitude
Rises 21:23:26 0° 311° (NW) 3,984 6.7 -16.8°
Reaches altitude 10° 21:26:00 10° 315° (NW) 3,141 6.1 -16.9°
Maximum altitude 21:33:43 60° 36° (NE) 1,544 3.7 -17.2°
Drops below altitude 10° 21:42:46 10° 115° (ESE) 3,657 5.1 -17.6°
Enters shadow 21:44:26 - 117° (ESE) 4,186 5.4 -17.7°
